User: anonymous   Login
Location: Albany
(35.0000°S, 118.0000°E)
Time: 16:54:22
(UTC-04:00)
Language:

Radarsat Rocket - Orbit

View from above orbital plane
View from above orbital plane
View from above satellite
View from above satellite

Ground track
Ground track

The orbit data is extracted from the following two-line orbital elements,

1 23711U 95059B   18115.95296083 -.00000037 +00000-0 +19827-4 0  9992
2 23711 100.5888 109.6739 0367666 332.1816 077.3133 13.12701680076656
Epoch (UTC): 25 April 2018 22:52:15
Eccentricity: 0.0367666
inclination: 100.5888°
perigee height: 933 km
apogee height: 1492 km
right ascension of ascending node: 109.6739°
argument of perigee: 332.1816°
revolutions per day: 13.12701680
mean anomaly at epoch: 77.3133°
orbit number at epoch: 7665

The dashed part of the orbit path shows where the satellite is in the earth's shadow,  

DLR